{"data":{"norad_id":61201,"epoch":"2026-09-21T09:19:15.237984Z","epoch_age_seconds":115230,"freshness":"FRESH","line1":"1 61201U 24171B   26264.38837081 -.00000668  00000+0 -65564-6 0  9996","line2":"2 61201  53.1590 291.6707 0001126  85.7664 274.3483 15.69705501115134","mean_motion":15.69705501,"eccentricity":0.0001126,"inclination_deg":53.159,"raan_deg":291.6707,"arg_perigee_deg":85.7664,"mean_anomaly_deg":274.3483,"bstar":-6.5564e-7,"rev_number":11513,"period_min":91.736953147111,"perigee_km":358.98093995845,"apogee_km":360.49830977437,"semimajor_km":6737.8766248664,"source":"CELESTRAK","updated_at":"2026-09-22T09:00:49.338307Z"}}